Dewpoint
21 18 17 16 15 15 15 19 22 20 24 24 23 21 19 18 16 16 15 18 19 20 20 20 22 24 23 24 24 24 25 30 30 34 38 39 39 40 41 42 43 45 48 49
16 16 16 15 15 15 15 15 14 15 17 20 19 17 16 16 16 16 17 18 18 17 18 18 19 19 20 22 22 24 29 27 28 32 36 38 38 39 40 41 42 42 44 45
14 18 16 12 18 22 22 17 18 16 21 18 16 16 16 16 16 16 17 16 16 16 17 18 19 19 21 21 23 25 26 25 27 31 37 37 38 38 40 40 40 41 41 42
16 15 9 18 20 22 18 23 23 21 17 16 16 16 16 16 16 16 16 15 16 16 17 17 19 20 21 23 22 24 24 24 27 33 35 36 37 38 39 39 39 39 40 40
15 14 14 18 15 14 14 19 17 16 15 15 16 16 13 17 17 16 16 16 16 17 17 17 17 18 20 21 22 22 23 24 29 30 32 35 37 37 38 38 39 39 40 40
20 15 12 14 14 15 15 14 17 16 16 16 16 12 13 17 16 16 16 16 16 16 17 16 17 18 19 20 21 22 23 25 27 29 31 35 37 37 38 39 39 39 39 40
18 18 18 14 14 15 14 13 17 16 16 16 15 15 16 16 16 16 16 16 17 16 16 17 17 18 19 20 20 22 24 25 26 27 30 36 36 37 38 38 37 36 36 37
19 17 13 16 15 13 16 17 17 16 16 15 15 16 16 16 16 16 16 16 16 16 17 18 19 19 19 19 21 22 23 24 24 27 29 35 35 35 37 36 34 34 34 35
20 20 16 16 18 17 17 16 16 16 16 16 15 15 16 15 15 15 15 16 16 17 18 19 19 19 19 20 21 21 22 23 24 27 29 36 35 35 34 34 34 33 33 33
19 16 14 17 17 17 16 16 16 16 16 16 15 15 15 15 15 15 16 16 17 19 17 17 18 19 20 21 22 21 22 23 25 27 29 36 35 35 34 33 33 33 33 32
13 14 17 17 16 16 16 16 16 16 16 16 15 15 15 15 15 16 16 18 17 17 18 18 20 22 24 24 23 22 22 24 25 27 33 33 33 34 34 35 35 33 33 33
10 17 16 16 16 16 15 15 16 16 16 16 16 15 16 16 16 16 18 16 17 17 18 20 21 23 25 28 27 23 22 24 25 28 32 33 32 32 36 36 37 37 37 36
17 17 17 17 16 16 15 16 16 17 16 15 16 16 16 16 16 20 16 16 16 17 19 20 20 25 29 31 28 25 24 25 26 29 33 32 32 32 31 35 37 37 37 37
16 16 16 16 15 16 16 16 17 16 16 16 16 16 16 16 16 16 15 15 16 17 18 18 22 24 27 29 32 28 25 28 28 29 33 32 32 32 32 32 32 33 37 37
16 16 16 16 16 16 16 16 16 16 16 16 16 16 16 16 16 15 16 15 16 17 17 19 21 22 24 26 29 31 28 28 29 31 33 33 32 32 32 32 32 32 34 37
16 17 16 16 16 16 16 15 15 15 16 16 15 16 16 16 15 15 15 16 17 16 19 20 20 22 24 27 29 32 31 31 33 34 32 32 32 32 32 32 32 32 33 33
14 15 15 15 14 13 13 14 15 15 16 15 16 16 16 15 14 14 14 16 16 17 17 18 21 23 26 28 29 32 31 31 33 34 32 32 32 32 32 32 32 32 32 34
15 15 14 14 13 12 12 13 14 15 15 16 17 16 15 14 14 14 15 16 15 14 15 17 22 25 24 27 29 33 33 32 33 32 32 32 32 32 32 32 32 32 32 34
13 14 13 12 12 13 13 13 14 14 15 16 16 15 15 14 13 14 15 15 14 13 13 20 22 22 23 26 30 33 33 33 32 32 32 33 32 32 32 32 32 32 32 31
13 13 13 12 12 12 11 13 12 11 13 15 15 14 13 13 13 13 15 13 13 15 21 18 19 21 23 25 29 32 32 32 32 32 32 32 32 32 32 32 32 32 31 31
11 10 9 10 11 12 12 9 8 10 12 14 14 14 13 13 13 13 12 11 13 19 18 18 19 22 23 25 24 26 31 32 32 32 32 32 32 32 32 32 32 31 30 30
5 2 1 4 7 7 8 7 9 12 12 14 14 13 13 12 13 13 12 13 17 23 17 15 21 23 23 23 19 21 24 31 32 32 32 32 32 32 32 31 31 31 30 29
-0 -1 3 1 2 5 3 4 7 10 11 13 12 12 12 13 14 12 10 14 18 21 16 17 22 23 22 16 16 18 20 24 31 32 32 32 32 32 32 31 31 31 30 29
-2 -1 0 4 -4 -1 5 5 6 8 6 9 9 10 10 11 11 14 14 17 20 19 16 19 21 22 20 15 15 16 18 21 25 32 32 33 32 32 32 31 31 31 30 29
1 1 3 6 7 7 7 7 11 8 10 11 10 11 10 12 11 13 13 14 17 17 13 17 20 19 14 15 15 15 18 19 22 22 27 31 32 32 32 31 30 30 30 30
5 8 10 8 9 12 11 13 13 11 14 13 12 11 12 11 11 12 13 15 13 15 12 13 15 15 14 15 15 15 16 19 18 19 20 21 23 25 27 29 29 29 29 29
7 14 12 11 13 14 12 14 12 11 13 15 10 11 12 10 11 11 13 10 11 12 12 12 12 15 14 15 14 15 16 17 21 18 18 18 18 19 20 21 22 23 24 25
Lifted_Index
4 4 4 3 3 3 3 3 3 4 5 6 6 6 7 8 8 9 9 9 9 10 10 11 11 11 11 11 12 12 11 11 10 10 10 9 7 6 5 4 3 3 3 3
4 4 4 3 3 3 4 4 4 5 5 6 7 7 7 8 9 9 9 10 10 10 11 11 11 12 12 12 12 12 11 11 11 11 10 9 8 6 5 5 4 3 3 3
4 4 4 4 4 4 5 5 6 6 6 7 7 7 8 9 10 10 10 10 11 11 12 12 12 13 12 12 12 12 11 11 11 11 10 9 8 7 6 6 5 4 4 4
4 4 3 4 5 5 6 6 6 7 7 7 8 8 9 10 11 10 11 11 12 12 13 13 13 13 13 13 12 12 11 11 12 11 10 10 8 7 7 6 6 5 5 5
4 4 4 4 6 6 6 6 7 8 8 8 9 9 10 10 11 11 11 12 12 13 13 14 14 14 13 12 11 11 11 11 12 12 11 9 8 7 7 7 6 6 6 5
4 4 4 5 7 7 6 6 7 8 9 9 10 10 10 11 11 11 12 12 13 13 13 14 14 13 12 11 11 11 11 12 12 12 11 9 8 7 7 7 7 6 6 6
4 4 4 6 8 7 6 6 8 9 10 10 10 10 11 11 12 12 12 13 13 13 13 13 13 13 11 11 11 11 12 12 13 12 11 9 8 8 8 7 7 7 6 6
4 4 5 7 8 7 7 8 9 10 11 11 11 11 11 12 12 12 13 13 13 13 12 13 13 12 11 11 12 12 12 12 13 12 11 9 9 8 8 8 7 7 7 7
5 5 6 8 8 8 9 10 10 11 11 11 11 11 11 12 12 12 13 13 13 12 12 12 12 12 12 12 13 13 12 12 12 12 11 9 9 9 8 8 7 7 7 7
6 7 8 9 9 10 10 11 11 11 11 11 11 11 12 12 12 12 13 13 13 12 11 11 12 13 13 14 13 12 12 11 12 11 10 9 9 9 9 8 8 8 8 8
7 8 9 10 10 10 11 11 11 11 12 12 12 12 12 12 13 13 13 13 12 11 11 11 11 13 13 14 13 12 11 11 11 10 9 9 9 9 10 9 9 9 9 9
8 9 10 10 11 11 11 11 11 12 12 12 12 13 13 13 13 13 13 12 12 11 10 11 11 12 13 14 13 12 11 10 10 10 9 8 9 9 10 10 10 10 9 9
10 10 11 11 11 11 11 11 12 12 12 13 13 13 13 13 13 13 13 12 11 10 10 10 11 12 12 13 13 12 10 10 9 9 9 8 9 9 9 10 10 10 10 10
11 11 11 11 11 11 12 12 12 12 13 13 13 13 13 13 13 13 12 11 11 10 10 10 10 11 11 12 12 11 9 9 9 9 9 9 9 9 9 9 9 9 10 10
11 11 11 11 11 12 12 12 12 13 13 13 13 13 13 13 13 12 12 11 11 10 10 10 9 9 10 10 10 9 8 8 9 9 9 9 9 10 10 10 9 9 10 10
11 11 11 11 12 12 12 12 12 13 13 13 13 13 13 13 12 12 12 11 11 10 10 9 9 9 9 9 8 7 7 7 8 8 8 9 9 10 10 10 10 10 10 10
11 11 11 11 12 12 12 13 13 14 14 14 13 13 13 13 12 11 11 12 11 11 10 10 9 9 9 8 8 7 7 7 8 8 8 9 10 10 11 11 11 10 11 11
12 12 12 12 12 12 13 13 14 15 14 14 14 13 13 12 11 11 11 11 11 11 11 10 10 9 9 8 8 7 6 7 7 8 8 9 10 11 11 11 11 11 11 12
13 13 13 13 13 13 13 14 15 15 15 14 14 13 12 12 11 11 11 11 11 11 11 11 10 9 9 8 8 8 7 7 7 7 8 9 10 11 12 12 12 12 12 12
13 13 13 14 14 14 14 15 15 15 15 14 13 12 11 11 11 11 11 11 11 11 12 11 11 10 9 8 8 8 7 7 7 8 8 9 10 11 12 12 12 12 12 12
13 14 14 14 14 15 15 15 15 15 15 14 13 12 11 11 11 12 11 11 12 12 12 12 11 10 9 9 8 8 7 7 7 8 9 10 10 11 12 12 12 12 12 12
14 14 15 15 15 15 15 15 15 15 14 14 13 12 11 11 12 12 12 12 12 13 12 11 11 10 10 9 9 8 7 7 8 8 9 10 11 11 12 12 12 12 12 12
15 15 15 15 15 15 15 15 15 14 13 13 12 12 11 12 12 12 12 13 13 13 12 12 11 11 10 10 9 8 8 8 8 9 10 10 11 11 12 12 12 12 12 12
16 16 15 15 15 14 14 14 14 13 13 12 12 12 12 13 13 13 13 13 13 13 12 12 12 11 11 10 10 9 9 9 9 10 10 11 11 11 11 12 12 12 12 12
15 15 15 14 14 13 13 12 12 12 12 12 12 13 13 13 14 14 14 14 13 13 13 12 12 12 11 11 11 10 10 10 10 10 11 11 11 11 11 11 11 11 12 12
14 14 13 13 12 12 11 11 11 11 11 11 12 13 13 14 14 14 14 14 14 13 13 13 12 12 12 12 12 11 11 11 11 11 11 11 11 11 11 11 11 11 11 11
13 13 12 12 12 11 11 10 10 10 11 11 12 13 13 14 14 14 14 14 14 13 13 13 13 12 12 12 12 12 12 12 11 11 11 11 11 11 11 11 11 11 11 11